Погода в Мостах Правых

Беларусь     53°25′36″N   24°37′42″E
темп.,
°C
ветер,
м/с
пор.,
м/с
влажн.,
%
обл.,
%
осадки,
мм/ч
давл.,
гПа
погр.,
м
11 апреля, вс
вс1100:00+9в2277100 0.3 101929
03:00+8в2281100 0.3 101915
06:00+7ююв3680100 0.0 1020113
09:00+9ю4773100 0.0 1021272
12:00+14ю5756100 0.0 1022717
15:00+17ю7944100 0.0 10221444
18:00+16ююв6104899 0.0 10211479
21:00+12ююв61456100 0.0 1022413
12 апреля, пн
пн1200:00+10ююв71654100 0.0 1023459
03:00+9ююв61458100 0.0 1023421
06:00+7ююв6155847 0.0 1023402
09:00+9ююв71457100 0.0 1022570
12:00+13ююв81143100 0.0 1021922
15:00+15ююв7945100 0.0 10201139
18:00+14ююв595490 0.0 1019982
21:00+12юв41160100 0.0 1019343
13 апреля, вт
вт1300:00+10ю41178100 0.4 1019372
03:00+10ю4985100 0.7 1019312
06:00+7сз6891100 0.0 1020352
09:00+5ссз5686100 0.0 1022451
12:00+6ссз6681100 0.0 1023605
15:00+7с6775100 0.0 1023725
18:00+7с6868100 0.0 1022751
21:00+6с51172100 0.0 1022529
14 апреля, ср
ср1400:00+6с61271100 0.0 1021684
03:00+5с61271100 0.0 1020715
06:00+4с81473100 0.0 1019707
09:00+4с81378100 0.2 1019749
12:00+2с81496100 2.3 1019625
15:00+2с81495100 4.4 1018613
18:00+2с81496100 1.3 1017523
21:00+2ссв71296100 3.6 1018474
15 апреля, чт
чт1500:00+2ссв61196100 0.6 1018406
03:00+3ссв61197100 0.8 1017366
06:00+3ссв51097100 0.0 1018395
09:00+3ссв5995100 0.3 1019426
12:00+4ссв6989100 0.0 1019554
15:00+4ссв6987100 0.0 1020560
18:00+3с61096100 0.1 1020530
21:00+3ссв61193100 0.1 1021652